Location: Gussola
(45.0000°N, 10.3333°E)
Time: 15:59:16
(UTC+00:00)

Daily predictions for brighter satellites

Satellite Brightness Start Highest point End
(mag) Time Altitude Azimuth Time Altitude Azimuth Time Altitude Azimuth
Cosmos 2082 Rocket 2.4 16:02:06 10° S 16:07:38 58° ESE 16:13:11 10° NNE
Cosmos 540 Rocket 3.5 16:03:31 10° SSW 16:08:37 84° ESE 16:13:45 10° NNE
Sich 1 3.2 16:05:42 10° N 16:09:55 50° ENE 16:14:07 10° SSE
Cosmos 1500 Rocket 3.9 16:05:33 10° NNW 16:09:59 74° W 16:14:20 10° S
ARGOS 4.5 16:06:36 10° E 16:10:02 17° ENE 16:13:28 10° NNE
FengYun 1-2 T 4.3 16:07:45 10° SSE 16:13:13 61° ENE 16:18:40 10° N
COSMOS 2455 2.9 16:08:13 10° SSW 16:14:14 82° ESE 16:20:18 10° NNE
SMAP 3.3 16:11:31 10° SE 16:15:58 48° ENE 16:20:27 10° N
NOAA 6 4.2 16:12:30 10° SE 16:17:27 51° ENE 16:22:24 10° N
Cosmos 1933 3.4 16:16:52 10° S 16:20:53 82° W 16:24:57 10° N
Cosmos 1833 Rocket 3.4 16:15:32 10° SW 16:21:02 55° WNW 16:26:36 10° NNE
Cosmos 1805 Rocket 3.5 16:18:06 10° N 16:22:28 88° E 16:26:48 10° S
Cosmos 2278 3.8 16:17:25 10° NNW 16:23:03 58° ENE 16:28:39 10° SE
Cosmos 1602 3.9 16:21:27 10° N 16:25:20 80° W 16:29:13 10° S
CZ-4B DEB 4.4 16:21:21 10° SE 16:26:37 49° ENE 16:31:53 10° N
USA 305 3.9 16:25:51 10° NW 16:29:37 30° NNE 16:32:51 13° ENE
CZ-2C R/B 3.6 16:26:56 10° NE 16:31:05 24° E 16:35:11 10° SE
CZ-4B R/B 3.1 16:28:05 10° S 16:32:02 70° WSW 16:35:49 10° NNW
SL-24 R/B - RUBIN 2 4.0 16:27:55 10° NW 16:32:23 67° WSW 16:36:39 10° SSE
Cosmos 1500 3.1 16:31:52 10° N 16:35:37 86° E 16:39:19 10° S
Meteor 1-14 Rocket 4.4 16:30:08 10° N 16:35:57 59° ENE 16:41:49 10° SSE
Cosmos 44 Rocket 3.4 16:32:20 10° NNW 16:37:09 50° NE 16:41:47 10° SE
Meteor 2-16 Rocket 4.5 16:34:08 10° N 16:40:11 58° ENE 16:46:13 10° SSE
COSMOS 2406 4.0 16:35:06 10° SW 16:40:41 51° WNW 16:46:17 10° NNE
Cosmos 1814 Rocket 3.9 16:36:17 10° SSW 16:41:29 76° ESE 16:46:39 10° NNE
Cosmos 921 Rocket 3.7 16:38:58 10° SSE 16:42:45 33° E 16:45:57 13° NE
Cosmos 1570 Rocket 4.0 16:43:07 10° SSW 16:48:20 76° ESE 16:53:35 10° NNE
MOS 1-B Rocket 4.3 16:46:32 10° NNE 16:52:33 55° ESE 16:59:27 10° S
CZ-4B R/B 3.4 16:47:39 10° SE 16:52:42 44° ENE 16:57:44 10° N
CZ-2D R/B 3.2 16:51:14 10° SSE 16:55:00 61° ENE 16:58:47 10° N
Cosmos 2298 Rocket 4.2 16:50:47 10° NNW 16:55:57 49° ENE 17:01:06 10° SE
USA 267 3.3 16:50:26 14° NE 16:56:14 87° NNW 17:02:47 10° SW
MOS 1-B 4.3 16:51:50 10° SSE 16:57:32 65° ENE 17:03:16 10° N
Cosmos 1939 Rocket 3.7 16:53:41 10° S 16:57:42 55° W 17:01:42 10° NNW
ATLAS CENTAUR R/B 3.6 16:49:16 10° WSW 16:58:16 46° NW 17:01:31 16° NNE
Cosmos 1151 Rocket 3.0 16:56:25 10° S 17:00:45 88° WNW 17:05:08 10° N
Meteor 1-27 Rocket 4.5 16:56:21 10° SSE 17:00:59 29° E 17:04:00 18° NE
USA 306 3.5 16:58:08 10° NW 17:02:07 38° NNE 17:03:51 26° ENE
COSMO-SKYMED 1 3.0 16:59:10 15° NNE 17:02:25 39° E 17:06:29 10° SSE
Cosmos 1633 Rocket 3.0 16:58:11 10° N 17:02:36 83° E 17:07:00 10° S
Cosmos 1782 4.1 16:59:11 10° SSW 17:02:57 40° WNW 17:06:44 10° N
APEX 3.4 16:59:43 10° S 17:03:21 42° ESE 17:04:23 31° ENE
Meteor 2-6 Rocket 4.2 16:58:04 10° S 17:03:45 68° E 17:09:17 10° NNE
Cosmos 1666 2.7 17:00:36 10° N 17:04:19 79° W 17:08:01 10° S
Landsat 5 4.3 17:05:03 26° E 17:05:38 27° E 17:09:00 10° SSE
Cosmos 2360 Rocket 3.1 17:02:03 10° N 17:06:48 26° NE 17:08:17 24° ENE
ISS -1.4 17:04:41 10° W 17:07:32 25° SW 17:10:21 10° SSE
PAYLOAD B 4.2 17:01:59 10° SSE 17:07:35 82° ENE 17:13:13 10° NNW
Cosmos 1900 4.4 17:03:13 10° SW 17:08:05 77° NW 17:11:52 17° NNE
Cosmos 1818 3.6 17:07:14 10° NW 17:12:45 88° WSW 17:18:11 10° SSE
Cosmos 2279 Rocket 4.1 17:10:33 10° SSW 17:16:45 78° W 17:22:59 10° N
CZ-2C R/B 3.3 17:13:45 10° SW 17:16:58 20° S 17:19:13 14° SE
Meteor 2-15 4.3 17:13:02 10° S 17:19:05 71° E 17:25:09 10° NNE
ATLAS 5 CENTAUR R/B 2.1 17:13:13 10° NW 17:19:11 41° NNE 17:19:39 39° NE
Cosmos 2266 Rocket 4.0 17:15:25 10° N 17:21:48 65° E 17:28:09 10° SSE
USA 307 3.3 17:18:40 10° NW 17:22:46 44° NNE 17:23:33 39° NE
CZ-4C R/B 3.6 17:16:34 10° NW 17:23:52 62° WSW 17:32:15 10° SSE
SL-08 RB Rocket 3.9 17:19:51 10° SE 17:24:14 45° ENE 17:28:36 10° N
Lacrosse 5 rocket 1.5 17:22:02 10° NW 17:25:57 70° SW 17:28:57 18° SE
SKYMED 3 4.4 17:23:34 19° NNE 17:26:37 72° ESE 17:30:57 10° S
Cosmos 2208 Rocket 4.5 17:22:20 10° SSW 17:27:42 65° WNW 17:32:51 12° NNE
USA 234 3.2 17:22:53 10° SE 17:29:26 89° NE 17:36:01 10° NW
ATLAS 2AS CENTAUR R/B 4.2 17:24:12 10° NNW 17:29:28 20° NNE 17:31:18 18° NNE
Cosmos 1933 Rocket 3.5 17:25:26 10° N 17:29:43 58° E 17:33:59 10° SSE
Cosmos 2322 Rocket 2.2 17:24:10 10° NNW 17:29:48 57° ENE 17:35:03 12° SE
Tiangong 3.4 17:28:39 10° SSW 17:30:10 15° SSE 17:30:10 15° SSE
Cosmos 1328 Rocket 4.1 17:26:28 10° SSW 17:30:51 60° W 17:35:15 10° N
Cosmos 2150 Rocket 3.9 17:26:21 10° NNW 17:31:34 88° ENE 17:36:49 10° SSE
Cosmos 1980 Rocket 4.2 17:27:49 10° NW 17:32:40 30° WSW 17:37:28 10° SSW
Cosmos 1470 Rocket 3.7 17:31:18 10° NNW 17:35:46 75° W 17:40:14 10° S
Cosmos 1544 2.9 17:32:14 10° N 17:35:52 89° W 17:39:29 10° S
Cosmos 1867 3.6 17:31:33 10° SSW 17:36:52 58° ESE 17:38:27 42° ENE
NOSS 3-3 (A) 4.2 17:31:50 10° S 17:37:07 43° ESE 17:38:22 38° E
NOSS 3-3 (C) 4.2 17:31:56 10° S 17:37:13 43° ESE 17:38:27 38° E
Cosmos 1125 Rocket 3.4 17:32:31 10° NNW 17:37:48 88° WSW 17:43:05 10° SSE
H-2A R/B 2.6 17:32:48 10° S 17:37:51 58° W 17:42:48 10° NNW
X-37B 1.5 17:35:40 10° WSW 17:37:49 39° SSW 17:37:49 39° SSW
DEBRIS 3.6 17:36:22 10° SSW 17:38:34 36° SE 17:38:34 36° SE
Okean O Rocket 1.5 17:35:09 10° SSE 17:39:36 88° E 17:44:06 10° NNW
Meteor 1-10 Rocket 4.3 17:35:07 10° SSW 17:40:53 83° W 17:46:34 10° N
GEOS 3 Rocket 4.4 17:41:55 32° NNE 17:41:55 32° NNE 17:46:11 10° NNW
USA 32 3.9 17:37:40 10° S 17:42:50 67° E 17:46:22 21° NNE
Meteor 1-11 Rocket 3.6 17:37:19 10° N 17:43:00 84° ENE 17:48:48 10° SSE
USA 308 3.0 17:41:19 10° NW 17:45:21 57° NNE 17:45:21 57° NNE
ARGOS 3.2 17:44:16 10° S 17:49:39 77° WSW 17:55:05 10° NNW
SL-16 R/B 2.3 17:44:43 10° NNW 17:50:24 78° WSW 17:56:04 10° SSE
SKYMED 2 3.9 17:47:47 22° N 17:50:33 64° WNW 17:54:50 10° SSW
Cosmos 2082 Rocket 4.0 17:47:24 10° WSW 17:52:05 26° NW 17:56:49 10° N
deb Chang Zheng 4 4.3 17:51:01 10° S 17:55:14 54° W 17:59:28 10° NNW
Cosmos 1241 Rocket 4.3 17:54:01 10° SSW 18:00:23 75° ESE 18:01:58 52° NE
Feng Yun 1-1 Rocket 4.3 17:58:35 10° SSE 18:04:30 90° WSW 18:10:22 10° NNW
USA 305 3.5 18:05:37 10° NW 18:08:52 51° NW 18:08:52 51° NW
Cosmos 2333 Rocket 3.4 18:04:56 10° NNW 18:08:05 29° N 18:08:05 29° N
Cosmos 1356 Rocket 4.5 18:06:22 10° NNW 18:10:26 46° W 18:14:30 10° SSW
CZ-2C R/B 3.5 18:06:50 11° N 18:11:36 46° WNW 18:16:30 10° SW
Aureole 3 Rocket 3.8 18:12:42 10° SSW 18:17:11 66° WNW 18:23:36 10° N
Cosmos 2219 Rocket 3.8 18:12:56 10° NNW 18:15:05 21° N 18:15:05 21° N
USA 267 4.0 18:37:47 37° N 18:38:50 40° NNW 18:44:49 10° W
Cosmos 2360 Rocket 2.9 18:45:37 10° NNW 18:50:08 49° WNW 18:50:08 49° WNW
CZ-2C R/B 4.3 18:52:56 10° SW 18:53:23 12° SW 18:53:23 12° SW
Cosmos 2322 Rocket 4.3 19:09:01 10° NW 19:13:25 23° W 19:17:09 13° SSW
ATLAS 2AS CENTAUR R/B 4.3 19:15:32 10° NNW 19:18:44 25° NNW 19:18:44 25° NNW
